Location: ??? ?????
(30.6482°N, 60.5850°E)
Time: 18:50:21
(UTC+00:00)

Gbstr 26 Del rocket - Pass Details

Date: 09 April 2020
Orbit: 493 x 1263 km, 51.8° (Epoch: 05 June)

Event Time Altitude Azimuth Distance (km) Brightness Sun altitude
Exits shadow 23:42:01 50° 268° (W) 1,195 4.0 -24.1°
Maximum altitude 23:43:21 61° 316° (NW) 1,041 4.0 -23.8°
Drops below altitude 10° 23:48:54 10° 36° (NE) 2,366 6.9 -22.7°
Sets 23:51:09 0° 40° (NE) 3,184 7.8 -22.3°
